Location: A�t Lahcen
(32.8243°N, 5.4246°W)
Time: 01:44:38
(UTC+00:00)

CZ-4B R/B - Pass Details

Date: 27 January 2021
Orbit: 387 x 458 km, 97.6° (Epoch: 27 February)

Event Time Altitude Azimuth Distance (km) Brightness Sun altitude
Rises 06:25:22 0° 202° (SSW) 2,447 5.1 -11.7°
Reaches altitude 10° 06:27:57 10° 224° (SW) 1,589 3.9 -11.2°
Maximum altitude 06:30:10 16° 265° (W) 1,257 3.1 -10.7°
Enters shadow 06:30:56 15° 281° (W) 1,302 3.1 -10.6°
